Location: Dentlein
(49.1477°N, 10.4231°E)
Time: 02:39:39
(UTC+00:00)

Cosmos 1300 Rocket - Pass Details

Date: 23 May 2024
Orbit: 597 x 624 km, 82.5° (Epoch: 19 June)

Event Time Altitude Azimuth Distance (km) Brightness Sun altitude
Rises 01:10:42 0° 350° (N) 2,877 7.9 -15.6°
Reaches altitude 10° 01:12:56 10° 351° (N) 1,964 6.9 -15.4°
Maximum altitude 01:17:17 84° 78° (ENE) 613 3.5 -15.1°
Enters shadow 01:20:35 17° 168° (SSE) 1,543 5.2 -14.8°
